Other Public Products
Issued by NWS Charleston, SC

Current Version | Previous Version | Text Only | Print | Product List | Glossary Off
Versions: 1 2 3 4 5 6 7 8 9 10 11 12 13 14 15 16 17 18 19 20 21 22 23 24 25 26 27 28 29 30 31 32 33 34 35 36 37 38 39 40 41 42 43 44 45 46 47 48 49 50

850
FPUS82 KCHS 251327
OPUCHS

TEST...KCHS/KSAV Gateway Observations...TEST
National Weather Service Charleston SC
900 AM EDT FRI MAY 25 2018

NOTE: "fair" indicates few or no clouds below 12,000 feet with no
significant weather and/or obstructions to visibility.

SCZ050-WAZ558-NCZ071-TXZ119-213-PAZ071-DCZ001-FLZ074-172-MI076-
NYZ176-178-MAZ016-IL014-TNZ027-NJZ106-GAZ044-MD014-251400-

...Gateway Observations for Charleston International...

CITY           SKY/WX    TMP DP  RH WIND       PRES   REMARKS
Chas Airport   FAIR      79  72  79 E6        30.10R
Seattle        CLOUDY    53  44  71 N7        30.04R
Charlotte      PTSUNNY   73  69  87 SE6       30.14R
Dallas DFW     MOSUNNY   78  71  79 SW10      29.96R
Dallas Love    MOSUNNY   79  71  76 SW8G17    29.97R
Philladelphia  FAIR      70  60  70 SW10      30.08F
Wash National  FAIR      70  62  76 S9        30.09F
Baltimore      FAIR      72  61  68 S6        30.08S
Miami          CLOUDY    80  75  84 E15       30.01R
Detroit        PTSUNNY   71  53  52 SW8       30.00F
Newark         FAIR      73  55  53 SW10      30.03F
Laguardia      FAIR      76  51  41 SW7       30.02F
J F K          FAIR      68  59  73 SW15      30.05F
Boston Logan   FAIR      73  48  41 W14       29.93F
Ft. Lauderdale LGT RAIN  80  77  90 SE17      30.01R
Chicago O`Hare FAIR      74  56  53 SW10      29.94S
Chicago Midway FAIR      75  56  51 SW9       29.95S
Houston Bush   FAIR      77  74  90 CALM      29.97S
Houston Hobby  FAIR      77  76  96 CALM      29.97S
Nashville      FAIR      74  66  76 S6        30.02F
Atlanta        CLOUDY    72  67  84 E8        30.09R

$$

GAZ044-118-TXZ119-213-NCZ071-DCZ001-MDZ014-506-PAZ021-071-NJZ106-
NYZ176-178-MAZ106-OHZ011-021-055-MIZ076-KYZ091-ILZ014-INZ047-
MNZ060-ONZ431-251400-

...Gateway Observations for Savannah International...

CITY           SKY/WX    TMP DP  RH WIND       PRES   REMARKS
Savannah Arpt  PTSUNNY   78  74  87 SE6       30.08S
Atlanta        CLOUDY    72  67  84 E8        30.09R
Charlotte      PTSUNNY   73  69  87 SE6       30.14R
Dallas DFW     MOSUNNY   78  71  79 SW10      29.96R
Houston Bush   FAIR      77  74  90 CALM      29.97S
Wash National  FAIR      70  62  76 S9        30.09F
Wash Dulles    FAIR      70  59  68 S3        30.09F
Baltimore      FAIR      72  61  68 S6        30.08S
Philadelphia   FAIR      70  60  70 SW10      30.08F
Newark         FAIR      73  55  53 SW10      30.03F
Laguardia      FAIR      76  51  41 SW7       30.02F
J F K          FAIR      68  59  73 SW15      30.05F
Boston         FAIR      73  48  41 W14       29.93F
Pittsburg      FAIR      68  57  68 CALM      30.05S
Akron          FAIR      71  52  50 CALM      30.05S
Cleveland      FAIR      73  55  53 SW6       30.03F
Cincinnati     FAIR      73  58  59 CALM      30.03F
Columbus       FAIR      68  58  71 MISG      30.03F
Detroit        PTSUNNY   71  53  52 SW8       30.00F
Chicago O`Hare FAIR      74  56  53 SW10      29.94S
Minneapolis    CLOUDY    69  65  86 S7        29.81S
Indianapolis   FAIR      71  58  63 CALM      30.01F
Toronto Canada PTSUNNY   73  52  46 W10       29.95F

$$




USA.gov is the U.S. government's official web portal to all federal, state and local government web resources and services.